This is the latest recevied weather packets stored in our database for station/object N9XRG. If no packets are shown the sender has not sent any weather packets the latest 10 day(s).
| Time | Temp. | Humidity | Pressure | Rain* | Wind** | Luminosity | Snow |
|---|---|---|---|---|---|---|---|
| 1778140288 | 3.33° C | 82% | 1014.5 hPa | 0 mm | - | 0 W/m² | - |
| 1778139984 | 3.33° C | 84% | 1014.5 hPa | 0 mm | - | 0 W/m² | - |
| 1778139683 | 3.33° C | 84% | 1014.5 hPa | 0 mm | - | 0 W/m² | - |
| 1778139379 | 2.78° C | 85% | 1014.5 hPa | 0 mm | - | 0 W/m² | - |
| 1778139075 | 2.78° C | 86% | 1014.8 hPa | 0 mm | - | 0 W/m² | - |
| 1778138773 | 2.78° C | 87% | 1014.5 hPa | 0 mm | - | 0 W/m² | - |
| 1778138470 | 2.78° C | 88% | 1014.4 hPa | 0 mm | - | 0 W/m² | - |
| 1778138167 | 2.78° C | 88% | 1014.6 hPa | 0 mm | - | 0 W/m² | - |
| 1778137863 | 2.78° C | 88% | 1014.6 hPa | 0 mm | - | 0 W/m² | - |
| 1778137561 | 2.78° C | 88% | 1014.7 hPa | 0 mm | - | 0 W/m² | - |
| 1778137258 | 3.33° C | 88% | 1014.7 hPa | 0 mm | - | 0 W/m² | - |
| 1778136954 | 3.33° C | 86% | 1014.7 hPa | 0 mm | - | 0 W/m² | - |
| 1778136651 | 3.33° C | 86% | 1014.8 hPa | 0 mm | - | 0 W/m² | - |
| 1778136349 | 3.33° C | 86% | 1014.7 hPa | 0 mm | - | 0 W/m² | - |
| 1778136048 | 3.89° C | 85% | 1014.7 hPa | 0 mm | - | 0 W/m² | - |
| 1778135744 | 3.89° C | 83% | 1014.7 hPa | 0 mm | - | 0 W/m² | - |
| 1778135442 | 3.89° C | 83% | 1014.7 hPa | 0 mm | - | 0 W/m² | - |
| 1778135138 | 3.89° C | 85% | 1014.8 hPa | 0 mm | - | 0 W/m² | - |
| 1778134836 | 3.89° C | 85% | 1014.8 hPa | 0 mm | - | 0 W/m² | - |
| 1778134533 | 3.89° C | 85% | 1014.6 hPa | 0 mm | - | 0 W/m² | - |
| 1778134231 | 3.89° C | 85% | 1014.8 hPa | 0 mm | - | 0 W/m² | - |
| 1778133929 | 3.89° C | 85% | 1015 hPa | 0 mm | - | 0 W/m² | - |
| 1778133626 | 4.44° C | 83% | 1014.7 hPa | 0 mm | - | 0 W/m² | - |
| 1778133326 | 4.44° C | 83% | 1014.9 hPa | 0 mm | - | 0 W/m² | - |
| 1778133022 | 4.44° C | 80% | 1014.8 hPa | 0 mm | - | 0 W/m² | - |
* Rain latest hour (hover to see other rain measurements)
** Current wind speed in m/s (hover to see current wind gust speed)